Location: Neuvy Saint Sepulchre
(46.5953°N, 1.8122°E)
Time: 12:41:46
(UTC+02:00)

ISS - Pass Details

Date: 25 September 2022
Orbit: 414 x 417 km, 51.6° (Epoch: 01 October)

Event Time Altitude Azimuth Distance (km) Brightness Sun altitude
Rises 20:29:59 0° 281° (W) 2,360 2.6 -8.6°
Reaches altitude 10° 20:32:12 10° 291° (WNW) 1,498 0.6 -9.0°
Maximum altitude 20:35:18 33° 357° (N) 728 -2.4 -9.5°
Enters shadow 20:38:20 10° 64° (ENE) 1,481 -1.5 -10.0°
